DAL3716 KLAX-KSAN

Flight info

Callsign DAL3716
Flight time 0h 29m
Altitude 13000
Route LAXX1 MZB
Aircraft A320/M-SDE3FGHIRWY/LB1

Departure

Time 2026-05-06 04:08
Airport Los Angeles International Airport (KLAX)

Arrival

Time 2026-05-06 04:37
Airport San Diego International Airport (KSAN)
Time Latitude Longitude Altitude Speed Heading
2026-05-06 03:34 33.94647 -118.40171 93 ft 0 kts 86°
2026-05-06 03:52 33.94647 -118.40184 93 ft 4 kts 85°
2026-05-06 03:52 33.94643 -118.40216 93 ft 4 kts 73°
2026-05-06 03:53 33.94631 -118.40243 93 ft 4 kts 33°
2026-05-06 03:53 33.94641 -118.40242 93 ft 4 kts
2026-05-06 03:53 33.94667 -118.40248 93 ft 4 kts 349°
2026-05-06 03:53 33.94681 -118.40250 94 ft 0 kts 353°
2026-05-06 03:56 33.94719 -118.40256 93 ft 13 kts 352°
2026-05-06 03:57 33.94808 -118.40307 93 ft 16 kts 277°
2026-05-06 03:57 33.94795 -118.40445 94 ft 18 kts 260°
2026-05-06 03:57 33.94781 -118.40598 93 ft 19 kts 266°
2026-05-06 03:57 33.94765 -118.40764 94 ft 21 kts 262°
2026-05-06 03:58 33.94744 -118.40940 95 ft 22 kts 262°
2026-05-06 03:58 33.94721 -118.41127 93 ft 23 kts 262°
2026-05-06 03:58 33.94643 -118.41277 93 ft 23 kts 182°
2026-05-06 03:58 33.94482 -118.41258 94 ft 24 kts 172°
2026-05-06 03:59 33.94349 -118.41234 93 ft 18 kts 172°
2026-05-06 03:59 33.94221 -118.41213 94 ft 19 kts 172°
2026-05-06 03:59 33.94083 -118.41192 95 ft 21 kts 173°
2026-05-06 03:59 33.93931 -118.41170 93 ft 22 kts 172°
2026-05-06 04:00 33.93802 -118.41151 95 ft 13 kts 166°
2026-05-06 04:00 33.93769 -118.41069 93 ft 11 kts 84°
2026-05-06 04:00 33.93777 -118.40980 93 ft 10 kts 84°
2026-05-06 04:00 33.93787 -118.40902 94 ft 9 kts 83°
2026-05-06 04:01 33.93796 -118.40808 97 ft 13 kts 83°
2026-05-06 04:01 33.93808 -118.40681 94 ft 17 kts 84°
2026-05-06 04:01 33.93827 -118.40522 96 ft 21 kts 82°
2026-05-06 04:01 33.93843 -118.40341 96 ft 21 kts 83°
2026-05-06 04:02 33.93864 -118.40163 98 ft 21 kts 81°
2026-05-06 04:02 33.93880 -118.39992 96 ft 20 kts 83°
2026-05-06 04:02 33.93895 -118.39834 97 ft 18 kts 83°
2026-05-06 04:02 33.93906 -118.39732 95 ft 18 kts 82°
2026-05-06 04:03 33.93920 -118.39590 95 ft 16 kts 82°
2026-05-06 04:03 33.93934 -118.39460 95 ft 15 kts 82°
2026-05-06 04:03 33.93944 -118.39338 94 ft 15 kts 83°
2026-05-06 04:03 33.93964 -118.39173 93 ft 22 kts 82°
2026-05-06 04:04 33.93981 -118.38996 94 ft 20 kts 84°
2026-05-06 04:04 33.93997 -118.38830 94 ft 19 kts 82°
2026-05-06 04:04 33.94013 -118.38681 96 ft 17 kts 83°
2026-05-06 04:04 33.94029 -118.38518 96 ft 22 kts 83°
2026-05-06 04:05 33.94045 -118.38372 96 ft 13 kts 84°
2026-05-06 04:05 33.94058 -118.38241 95 ft 20 kts 83°
2026-05-06 04:05 33.94076 -118.38079 93 ft 12 kts 82°
2026-05-06 04:05 33.94050 -118.38001 93 ft 10 kts 155°
2026-05-06 04:06 33.93997 -118.38032 95 ft 8 kts 240°
2026-05-06 04:06 33.93976 -118.38091 94 ft 8 kts 262°
2026-05-06 04:06 33.93976 -118.38097 94 ft 0 kts 263°
2026-05-06 04:07 33.93966 -118.38202 97 ft 42 kts 263°
2026-05-06 04:07 33.93901 -118.38832 95 ft 107 kts 263°
2026-05-06 04:07 33.93787 -118.39942 101 ft 158 kts 263°
2026-05-06 04:07 33.93658 -118.41312 593 ft 164 kts 261°
2026-05-06 04:08 33.93486 -118.42660 1279 ft 162 kts 260°
2026-05-06 04:08 33.93271 -118.43994 1874 ft 165 kts 256°
2026-05-06 04:08 33.92678 -118.45278 2054 ft 189 kts 233°
2026-05-06 04:08 33.91817 -118.46582 2212 ft 211 kts 233°
2026-05-06 04:09 33.90865 -118.48056 2391 ft 234 kts 233°
2026-05-06 04:09 33.89840 -118.49673 2643 ft 251 kts 234°
2026-05-06 04:09 33.88769 -118.51350 3172 ft 255 kts 233°
2026-05-06 04:09 33.87674 -118.53047 3723 ft 259 kts 233°
2026-05-06 04:10 33.86561 -118.54763 4271 ft 262 kts 233°
2026-05-06 04:10 33.85438 -118.56495 4828 ft 265 kts 232°
2026-05-06 04:10 33.84300 -118.58252 5333 ft 268 kts 233°
2026-05-06 04:10 33.83032 -118.59906 5834 ft 272 kts 216°
2026-05-06 04:11 33.81287 -118.60817 6321 ft 278 kts 194°
2026-05-06 04:11 33.79385 -118.61298 6793 ft 281 kts 191°
2026-05-06 04:11 33.77450 -118.61741 7240 ft 285 kts 191°
2026-05-06 04:11 33.75492 -118.62192 7682 ft 289 kts 191°
2026-05-06 04:12 33.73514 -118.62652 8150 ft 291 kts 188°
2026-05-06 04:12 33.71494 -118.62569 8558 ft 293 kts 162°
2026-05-06 04:12 33.69705 -118.61446 8978 ft 293 kts 136°
2026-05-06 04:12 33.68512 -118.59507 9431 ft 289 kts 110°
2026-05-06 04:13 33.67910 -118.57211 9900 ft 289 kts 102°
2026-05-06 04:13 33.67406 -118.54839 10189 ft 303 kts 102°
2026-05-06 04:13 33.66871 -118.52290 10426 ft 327 kts 102°
2026-05-06 04:13 33.66314 -118.49543 10652 ft 349 kts 101°
2026-05-06 04:14 33.65742 -118.46669 11209 ft 358 kts 101°
2026-05-06 04:14 33.65170 -118.43745 11902 ft 362 kts 101°
2026-05-06 04:14 33.64582 -118.40787 12596 ft 366 kts 101°
2026-05-06 04:14 33.63981 -118.37801 12936 ft 369 kts 101°
2026-05-06 04:15 33.63388 -118.34810 13019 ft 370 kts 102°
2026-05-06 04:15 33.62497 -118.31814 13031 ft 396 kts 117°
2026-05-06 04:15 33.60946 -118.28991 13030 ft 410 kts 123°
2026-05-06 04:15 33.59303 -118.26178 13033 ft 413 kts 123°
2026-05-06 04:16 33.57641 -118.23372 13030 ft 413 kts 124°
2026-05-06 04:16 33.55968 -118.20564 13030 ft 414 kts 124°
2026-05-06 04:16 33.54295 -118.17753 13030 ft 415 kts 123°
2026-05-06 04:16 33.52622 -118.14936 13032 ft 415 kts 123°
2026-05-06 04:17 33.50950 -118.12113 13027 ft 415 kts 123°
2026-05-06 04:17 33.49284 -118.09294 13024 ft 414 kts 123°
2026-05-06 04:17 33.47619 -118.06477 13027 ft 414 kts 123°
2026-05-06 04:17 33.45949 -118.03661 13029 ft 414 kts 124°
2026-05-06 04:18 33.44280 -118.00849 13031 ft 415 kts 124°
2026-05-06 04:18 33.42609 -117.98032 13034 ft 415 kts 123°
2026-05-06 04:18 33.40941 -117.95217 13033 ft 415 kts 124°
2026-05-06 04:18 33.39270 -117.92401 13036 ft 415 kts 124°
2026-05-06 04:19 33.37596 -117.89584 13036 ft 416 kts 123°
2026-05-06 04:19 33.35922 -117.86765 13032 ft 416 kts 123°
2026-05-06 04:19 33.34245 -117.83943 13033 ft 416 kts 124°
2026-05-06 04:19 33.32567 -117.81123 13033 ft 416 kts 124°
2026-05-06 04:20 33.30913 -117.78347 13039 ft 416 kts 124°
2026-05-06 04:20 33.29232 -117.75531 13039 ft 416 kts 124°
2026-05-06 04:20 33.27548 -117.72716 13044 ft 416 kts 124°
2026-05-06 04:20 33.25863 -117.69902 13044 ft 416 kts 124°
2026-05-06 04:21 33.24180 -117.67087 13043 ft 416 kts 124°
2026-05-06 04:21 33.22495 -117.64272 13045 ft 417 kts 124°
2026-05-06 04:21 33.20812 -117.61464 13039 ft 411 kts 124°
2026-05-06 04:21 33.19190 -117.58762 13027 ft 390 kts 124°
2026-05-06 04:22 33.17635 -117.56174 13033 ft 379 kts 124°
2026-05-06 04:22 33.16110 -117.53631 13033 ft 371 kts 124°
2026-05-06 04:22 33.14656 -117.51207 12914 ft 346 kts 124°
2026-05-06 04:23 33.12018 -117.46825 12261 ft 314 kts 124°
2026-05-06 04:23 33.10756 -117.44728 11917 ft 308 kts 124°
2026-05-06 04:23 33.09518 -117.42667 11289 ft 304 kts 124°
2026-05-06 04:23 33.08291 -117.40627 10662 ft 301 kts 124°
2026-05-06 04:24 33.07076 -117.38614 10092 ft 299 kts 124°
2026-05-06 04:24 33.05872 -117.36619 9898 ft 295 kts 124°
2026-05-06 04:24 33.04615 -117.34676 9721 ft 297 kts 132°
2026-05-06 04:24 33.03021 -117.33121 9357 ft 297 kts 148°
2026-05-06 04:25 33.01144 -117.32116 8978 ft 296 kts 160°
2026-05-06 04:25 32.99240 -117.31208 8598 ft 294 kts 147°
2026-05-06 04:25 32.97770 -117.29577 8218 ft 288 kts 125°
2026-05-06 04:25 32.96652 -117.27607 7842 ft 287 kts 121°
2026-05-06 04:26 32.95581 -117.25612 7477 ft 285 kts 121°
2026-05-06 04:26 32.94512 -117.23626 7099 ft 285 kts 121°
2026-05-06 04:26 32.93443 -117.21648 6740 ft 283 kts 121°
2026-05-06 04:26 32.92381 -117.19677 6369 ft 282 kts 121°
2026-05-06 04:27 32.91329 -117.17717 6035 ft 278 kts 121°
2026-05-06 04:27 32.90305 -117.15766 5993 ft 278 kts 121°
2026-05-06 04:27 32.89286 -117.13806 5998 ft 279 kts 121°
2026-05-06 04:27 32.88270 -117.11846 6003 ft 278 kts 121°
2026-05-06 04:28 32.87257 -117.09885 5996 ft 279 kts 121°
2026-05-06 04:28 32.86243 -117.07920 6006 ft 279 kts 121°
2026-05-06 04:28 32.85228 -117.05955 6000 ft 278 kts 121°
2026-05-06 04:28 32.84215 -117.03996 5989 ft 278 kts 121°
2026-05-06 04:29 32.83201 -117.02036 5991 ft 278 kts 121°
2026-05-06 04:29 32.82190 -117.00078 5990 ft 278 kts 121°
2026-05-06 04:29 32.81177 -116.98114 5987 ft 278 kts 121°
2026-05-06 04:29 32.80187 -116.96193 5871 ft 266 kts 121°
2026-05-06 04:30 32.79244 -116.94364 5740 ft 253 kts 121°
2026-05-06 04:30 32.78346 -116.92618 5611 ft 242 kts 121°
2026-05-06 04:30 32.77486 -116.90941 5420 ft 235 kts 121°
2026-05-06 04:30 32.76646 -116.89295 5165 ft 232 kts 123°
2026-05-06 04:31 32.75536 -116.87964 4989 ft 228 kts 154°
2026-05-06 04:31 32.74011 -116.87563 4992 ft 227 kts 184°
2026-05-06 04:31 32.72438 -116.87757 4989 ft 228 kts 189°
2026-05-06 04:31 32.70873 -116.88044 4965 ft 227 kts 191°
2026-05-06 04:32 32.69404 -116.88614 4657 ft 222 kts 217°
2026-05-06 04:32 32.68442 -116.89956 4336 ft 216 kts 245°
2026-05-06 04:32 32.67829 -116.91585 4044 ft 216 kts 250°
2026-05-06 04:32 32.67277 -116.93239 3979 ft 216 kts 250°
2026-05-06 04:33 32.66811 -116.94937 3980 ft 217 kts 266°
2026-05-06 04:33 32.66882 -116.96705 3993 ft 214 kts 278°
2026-05-06 04:33 32.67111 -116.98452 3993 ft 214 kts 281°
2026-05-06 04:33 32.67460 -117.00172 3828 ft 214 kts 292°
2026-05-06 04:34 32.68151 -117.01720 3603 ft 211 kts 302°
2026-05-06 04:34 32.68915 -117.03184 3395 ft 206 kts 301°
2026-05-06 04:34 32.69557 -117.04636 3405 ft 192 kts 292°
2026-05-06 04:34 32.70022 -117.06121 3061 ft 196 kts 290°
2026-05-06 04:35 32.70515 -117.07675 2338 ft 205 kts 290°
2026-05-06 04:35 32.71000 -117.09220 1913 ft 189 kts 289°
2026-05-06 04:35 32.71382 -117.10662 1588 ft 179 kts 284°
2026-05-06 04:35 32.71666 -117.12075 1263 ft 173 kts 286°
2026-05-06 04:36 32.72027 -117.13418 857 ft 169 kts 288°
2026-05-06 04:36 32.72324 -117.14728 690 ft 163 kts 283°
2026-05-06 04:36 32.72613 -117.15974 562 ft 150 kts 288°
2026-05-06 04:36 32.72915 -117.17147 253 ft 148 kts 287°
2026-05-06 04:37 32.73195 -117.18303 48 ft 144 kts 288°
2026-05-06 04:37 32.73442 -117.19305 22 ft 94 kts 286°
2026-05-06 04:37 32.73578 -117.19878 28 ft 62 kts 285°
2026-05-06 04:37 32.73624 -117.20200 23 ft 25 kts 227°
2026-05-06 04:38 32.73547 -117.20225 22 ft 5 kts 194°
2026-05-06 04:38 32.73516 -117.20235 22 ft 5 kts 196°
2026-05-06 04:38 32.73511 -117.20236 22 ft 1 kts 196°
2026-05-06 04:38 32.73481 -117.20247 21 ft 14 kts 196°
2026-05-06 04:39 32.73421 -117.20268 22 ft 2 kts 197°
2026-05-06 04:39 32.73360 -117.20274 23 ft 6 kts 172°
2026-05-06 04:39 32.73326 -117.20263 21 ft 7 kts 162°
2026-05-06 04:39 32.73283 -117.20237 21 ft 7 kts 141°
2026-05-06 04:40 32.73261 -117.20193 21 ft 5 kts 113°
2026-05-06 04:40 32.73252 -117.20167 21 ft 2 kts 113°
2026-05-06 04:40 32.73249 -117.20158 21 ft 0 kts 113°